Location: Kampong Bukit Cherakah
(3.2667°N, 101.3667°E)
Time: 04:04:18
(UTC+00:00)

Daily predictions for brighter satellites

Satellite Brightness Start Highest point End
(mag) Time Altitude Azimuth Time Altitude Azimuth Time Altitude Azimuth
USA 281 3.5 11:04:35 10° NNE 11:11:08 78° WNW 11:17:42 10° SSW
Okean 2 Rocket 3.7 11:11:02 10° SSW 11:15:25 64° W 11:19:50 10° N
Cosmos 44 Rocket 4.3 11:10:53 10° SW 11:15:48 52° WNW 11:20:38 10° N
Cosmos 2219 Rocket 4.4 11:11:01 10° NW 11:15:53 31° WSW 11:20:48 10° SSW
Spelda 30 4.5 10:54:44 10° W 11:16:06 88° S 11:20:04 10° E
PSLV R/B 3.6 11:12:49 10° S 11:16:59 84° WSW 11:21:11 10° NNW
Cosmos 371 Rocket 3.4 11:13:40 10° SSW 11:18:26 84° WNW 11:23:11 10° N
ARIANE 5 R/B 3.2 11:13:56 10° WSW 11:18:33 56° S 11:22:37 10° E
ISS -3.3 11:16:47 10° SW 11:20:07 63° NW 11:23:25 10° NNE
Cosmos 2322 4.3 11:18:25 10° NNW 11:24:02 64° WSW 11:29:41 10° S
Stardust Del rocket 3.6 11:18:46 10° WSW 11:25:06 82° SSE 11:28:25 10° ENE
Cosmos 1238 4.4 11:21:52 10° S 11:25:13 78° W 11:28:13 10° N
ARIANE 5 R/B 3.3 11:23:58 10° W 11:28:04 64° N 11:32:25 11° E
IGS 5A 3.4 11:24:22 10° SSE 11:28:19 58° E 11:32:16 10° N
Cosmos 2098 Rocket 4.2 11:23:02 10° S 11:29:21 78° W 11:35:37 10° N
Cosmos 1486 Rocket 4.4 11:25:05 10° S 11:30:01 41° ESE 11:34:53 10° NNE
Cosmos 1869 3.7 11:33:31 10° SSE 11:36:49 33° E 11:40:06 10° NNE
Cosmos 1980 4.0 11:31:48 10° N 11:37:05 42° ENE 11:42:22 10° SE
Cosmos 1455 Rocket 3.3 11:33:07 10° SSE 11:37:23 48° E 11:41:38 10° NNE
Cosmos 1606 2.3 11:39:33 10° S 11:42:59 81° E 11:46:24 10° N
ARIANE 42L R/B 3.2 11:34:48 10° W 11:43:30 62° S 11:46:01 15° E
CZ-4 R/B 4.3 11:41:23 10° SSE 11:45:21 62° ENE 11:49:18 10° N
Cosmos 2227 4.2 11:40:50 10° S 11:46:23 62° ESE 11:51:54 10° NNE
ARIANE 5 DEB (SYLDA) 4.1 11:44:08 10° WSW 11:47:31 50° S 11:55:37 10° ESE
IRIDIUM 103 4.5 11:44:55 10° SSE 11:49:57 51° E 11:54:59 10° NNE
ATLAS 3B R/B 3.0 11:43:46 10° SSW 11:50:16 70° WNW 11:57:19 10° NNE
Cosmos 2154 Rocket 4.3 11:46:10 10° NNE 11:52:06 43° E 11:57:59 10° SSE
ARIANE 5 R/B 1.9 11:47:00 10° W 11:53:09 59° S 11:54:25 25° ESE
Delta 142 3.7 11:49:11 10° NW 11:54:16 59° NNE 11:57:01 21° ESE
ARIANE 5 R/B 3.2 11:56:55 10° SSW 11:58:06 13° SSE 11:58:54 12° SE
